Location: Bon Acre
(42.6442°N, 73.5758°W)
Time: 14:05:37
(UTC+00:00)

ARIANE 6 FM1 Upper Stage - Pass Details

Date: 20 February 2026
Orbit: 523 x 607 km, 62.0° (Epoch: 6 March)

Event Time Altitude Azimuth Distance (km) Brightness Sun altitude
Rises 00:04:11 0° 314° (NW) 2,657 6.9 -17.7°
Reaches altitude 10° 00:06:28 10° 306° (NW) 1,766 6.0 -18.1°
Maximum altitude 00:10:08 37° 239° (WSW) 837 4.0 -18.8°
Drops below altitude 10° 00:13:48 10° 172° (S) 1,776 5.1 -19.5°
Enters shadow 00:14:18 - 169° (S) 1,962 5.3 -19.6°
